DW4577 Weather Reports


Display with metric or nautical units.
time (UTC)temp
F
wind
direction
speed
MPH
gust
MPH
rain 1hr
in
rain 24hr
in
rain mn
in
humidity
%
barometer
mb
20240622094525 80 35 13.0 22.0 0.00 0.00 0.00 40 1015.7
20240622093016 80 18 15.0 24.0 0.00 0.00 0.00 42 1015.8
20240622091507 80 294 13.0 22.0 0.00 0.00 0.00 43 1016.0
20240622090002 79 315 12.0 19.0 0.00 0.00 0.00 45 1016.0
20240622084559 78 5 11.0 22.0 0.00 0.00 0.00 45 1016.2
20240622083055 77 342 13.0 20.0 0.00 0.00 0.00 49 1016.3
20240622081602 77 333 9.0 21.0 0.00 0.00 0.00 49 1016.3
20240622080101 77 25 13.0 21.0 0.00 0.00 0.00 50 1016.4
20240622074547 76 327 7.0 22.0 0.00 0.00 0.00 52 1016.4
20240622073049 75 351 9.0 19.0 0.00 0.00 0.00 54 1016.6
20240622071537 75 12 12.0 26.0 0.00 0.00 0.00 54 1016.5
20240622070048 74 5 9.0 23.0 0.00 0.00 0.00 57 1016.5
20240622064531 73 346 9.0 20.0 0.00 0.00 0.00 59 1016.5
20240622063057 73 355 6.0 19.0 0.00 0.00 0.00 61 1016.4
20240622061622 72 355 11.0 20.0 0.00 0.00 0.00 63 1016.5
20240622060019 71 324 9.0 17.0 0.00 0.00 0.00 64 1016.5
20240622054515 70 12 7.0 15.0 0.00 0.00 0.00 67 1016.4
20240622053011 70 5 6.0 12.0 0.00 0.00 0.00 68 1016.5
20240622051509 69 9 7.0 12.0 0.00 0.00 0.00 68 1016.4
20240622050008 69 351 5.0 13.0 0.00 0.00 0.00 69 1016.3
20240622044612 69 5 5.0 12.0 0.00 0.00 0.00 69 1016.2
20240622043100 68 360 4.0 13.0 0.00 0.00 0.00 69 1016.1
20240622041557 68 69 4.0 10.0 0.00 0.00 0.00 68 1015.9
20240622040054 69 18 6.0 16.0 0.00 0.00 0.00 67 1015.8
20240622034553 69 360 6.0 14.0 0.00 0.00 0.00 67 1015.7
20240622033052 69 338 6.0 14.0 0.00 0.00 0.00 66 1015.7
20240622031552 69 344 7.0 17.0 0.00 0.00 0.00 66 1015.7
20240622030048 69 312 8.0 20.0 0.00 0.00 0.00 67 1015.6
20240622024548 69 5 7.0 17.0 0.00 0.00 0.00 68 1015.5
20240622023044 70 355 11.0 20.0 0.00 0.00 0.00 68 1015.5
20240622021542 70 355 9.0 16.0 0.00 0.00 0.00 69 1015.5
20240622020040 70 321 3.0 17.0 0.00 0.00 0.00 69 1015.5
20240622014639 70 329 6.0 20.0 0.00 0.00 0.00 69 1015.6
20240622013047 70 340 11.0 19.0 0.00 0.00 0.00 69 1015.8
20240622011536 70 340 12.0 19.0 0.00 0.00 0.00 69 1015.8
20240622010029 70 360 5.0 18.0 0.00 0.00 0.00 69 1015.7
20240622004527 71 5 11.0 24.0 0.00 0.00 0.00 69 1015.8
20240622003037 71 355 9.0 21.0 0.00 0.00 0.00 69 1015.8
20240622001522 71 286 10.0 19.0 0.00 0.00 0.00 69 1015.7
20240622000019 71 5 9.0 18.0 0.00 0.00 0.00 69 1015.8
20240621234529 71 360 9.0 20.0 0.00 0.00 0.00 69 1015.8
20240621233035 71 333 10.0 20.0 0.00 0.00 0.00 68 1016.1
20240621231529 71 86 8.0 17.0 0.00 0.00 0.00 68 1016.0
20240621230015 72 360 8.0 18.0 0.00 0.00 0.00 68 1016.0
20240621224528 72 323 8.0 22.0 0.00 0.00 0.00 67 1016.0
20240621223005 72 17 8.0 17.0 0.00 0.00 0.00 67 1016.1
20240621221503 72 360 4.0 19.0 0.00 0.00 0.00 67 1016.2
20240621220103 72 5 10.0 19.0 0.00 0.00 0.00 66 1016.1
20240621214603 73 33 6.0 21.0 0.00 0.00 0.00 65 1016.0
20240621213101 73 329 7.0 18.0 0.00 0.00 0.00 65 1016.0
20240621211653 73 284 8.0 17.0 0.00 0.00 0.00 64 1015.9
20240621210150 73 355 8.0 14.0 0.00 0.00 0.00 63 1016.0
20240621204558 74 360 8.0 20.0 0.00 0.00 0.00 62 1015.8
20240621203049 74 355 9.0 22.0 0.00 0.00 0.00 60 1015.8
20240621201547 74 28 10.0 19.0 0.00 0.00 0.00 59 1015.6
20240621200044 75 360 8.0 15.0 0.00 0.00 0.00 58 1015.6
20240621194558 75 360 9.0 21.0 0.00 0.00 0.00 57 1015.3
20240621193053 76 26 6.0 21.0 0.00 0.00 0.00 54 1015.2
20240621191539 77 355 9.0 18.0 0.00 0.00 0.00 52 1014.9
20240621190041 77 13 11.0 23.0 0.00 0.00 0.00 51 1014.9
20240621184540 78 28 10.0 14.0 0.00 0.00 0.00 48 1014.8
20240621183037 79 17 11.0 22.0 0.00 0.00 0.00 46 1014.7
20240621181535 80 10 6.0 21.0 0.00 0.00 0.00 43 1014.5
20240621180034 81 331 12.0 21.0 0.00 0.00 0.00 42 1014.4
20240621174534 82 13 11.0 20.0 0.00 0.00 0.00 40 1014.2
20240621173052 82 360 9.0 23.0 0.00 0.00 0.00 38 1014.1
20240621171544 83 290 14.0 25.0 0.00 0.00 0.00 34 1013.9
20240621170031 84 355 12.0 22.0 0.00 0.00 0.00 31 1013.9
20240621164540 85 14 13.0 23.0 0.00 0.00 0.00 28 1013.8
20240621163042 85 5 14.0 22.0 0.00 0.00 0.00 29 1013.9
20240621161529 86 5 8.0 22.0 0.00 0.00 0.00 28 1013.6
20240621160030 87 64 13.0 20.0 0.00 0.00 0.00 28 1013.5
20240621154528 87 9 14.0 23.0 0.00 0.00 0.00 25 1013.7
20240621153127 88 351 12.0 26.0 0.00 0.00 0.00 21 1013.7
20240621151530 88 360 11.0 21.0 0.00 0.00 0.00 25 1013.8
20240621150023 88 360 9.0 22.0 0.00 0.00 0.00 31 1013.9
20240621144522 88 19 11.0 21.0 0.00 0.00 0.00 29 1013.9
20240621143024 88 294 14.0 24.0 0.00 0.00 0.00 29 1014.0
20240621141523 88 12 10.0 22.0 0.00 0.00 0.00 29 1014.1
20240621140021 88 360 10.0 25.0 0.00 0.00 0.00 26 1014.1
20240621134519 89 355 10.0 21.0 0.00 0.00 0.00 28 1014.1
20240621133022 88 328 11.0 19.0 0.00 0.00 0.00 30 1014.2
20240621131517 89 327 11.0 20.0 0.00 0.00 0.00 32 1014.3
20240621130028 89 340 11.0 17.0 0.00 0.00 0.00 31 1014.4
20240621124513 89 339 8.0 16.0 0.00 0.00 0.00 32 1014.4
20240621123010 89 315 6.0 16.0 0.00 0.00 0.00 34 1014.6
20240621121509 88 85 7.0 17.0 0.00 0.00 0.00 36 1014.7
20240621120010 88 40 11.0 20.0 0.00 0.00 0.00 36 1014.6
20240621114508 88 317 9.0 16.0 0.00 0.00 0.00 37 1014.8
20240621113004 87 14 11.0 19.0 0.00 0.00 0.00 38 1014.7
20240621111500 87 360 9.0 18.0 0.00 0.00 0.00 41 1014.7
20240621110057 86 355 6.0 17.0 0.00 0.00 0.00 44 1014.6
20240621104553 86 288 9.0 16.0 0.00 0.00 0.00 45 1014.8
20240621103052 85 15 5.0 19.0 0.00 0.00 0.00 46 1014.8
20240621101614 85 351 8.0 19.0 0.00 0.00 0.00 48 1014.9
20240621100042 85 360 7.0 18.0 0.00 0.00 0.00 49 1014.8